Overview Statistics Trail Chart Weather Telemetry Raw packets
 

This is the latest recevied weather packets stored in our database for station/object CW79215. If no packets are shown the sender has not sent any weather packets the latest 10 day(s).

<< 13 14 15 16 17 18 19 >>
Time Temp. Humidity Pressure Rain* Wind** Luminosity Snow
1788379537 17.78° C 64% 1032 hPa - - - -
1788378637 18.33° C 62% 1032 hPa - - - -
1788377737 18.89° C 59% 1031.8 hPa - - - -
1788376837 18.89° C 60% 1031.7 hPa - - - -
1788375937 19.44° C 59% 1031.6 hPa - - - -
1788375037 20° C 57% 1031.4 hPa - - - -
1788374137 20° C 55% 1031.2 hPa - - - -
1788373237 20.56° C 52% 1031 hPa - - - -
1788372336 21.11° C 50% 1030.8 hPa - - - -
1788371436 21.67° C 50% 1030.6 hPa - - - -
1788370536 22.22° C 48% 1030.4 hPa - - - -
1788369636 22.78° C 47% 1030.3 hPa - - - -
1788368736 22.78° C 45% 1030.2 hPa - - - -
1788367836 23.33° C 44% 1030 hPa - - - -
1788366936 23.89° C 42% 1030 hPa - - - -
1788366036 24.44° C 39% 1030.2 hPa - - - -
1788365136 24.44° C 38% 1030.3 hPa - - - -
1788364236 24.44° C 37% 1030.4 hPa - - - -
1788363335 25° C 36% 1030.3 hPa - - - -
1788362435 25° C 35% 1030.4 hPa - - - -
1788361535 25° C 36% 1030.5 hPa - - - -
1788360635 25° C 36% 1030.3 hPa - - - -
1788359737 25.56° C 37% 1030.4 hPa - - - -
1788358837 25.56° C 37% 1030.5 hPa - - - -
1788357937 26.11° C 33% 1030.4 hPa - - - -

* Rain since midnight (hover to see other rain measurements)
** Current wind speed in m/s (hover to see current wind gust speed)